User: anonymous   Login
Location: Peebles
(55.6412°N, 3.1714°W)
Time: 07:13:14
(UTC+00:00)
Language:

Meteor 2-5 Rocket - Orbit

View from above orbital plane
View from above orbital plane
View from above satellite
View from above satellite

Ground track
Ground track

The orbit data is extracted from the following two-line orbital elements,

1 11608U 79095B   21336.77602165 -.00000004  00000-0 -94005-5 0  9994
2 11608  81.2149  69.5447 0053469 264.5847  94.9220 14.06181833158859
Epoch (UTC): 02 December 2021 18:37:28
Eccentricity: 0.0053469
inclination: 81.2149°
perigee height: 834 km
apogee height: 911 km
right ascension of ascending node: 69.5447°
argument of perigee: 264.5847°
revolutions per day: 14.06181833
mean anomaly at epoch: 94.9220°
orbit number at epoch: 15885

The dashed part of the orbit path shows where the satellite is in the earth's shadow,  

DLR